Time,TemperatureF,DewpointF,PressureIn,WindDirection,WindDirectionDegrees,WindSpeedMPH,WindSpeedGustMPH,Humidity,HourlyPrecipIn,Conditions,Clouds,dailyrainin,SoftwareType,DateUTC
2014-01-24 00:02:00,38.9,35.3,29.83,WNW,293,6.0,7.8,87,0.00,,,0.00,WUHU216HW,2014-01-23 23:02:00,
2014-01-24 00:07:00,38.9,35.3,29.83,WNW,293,6.0,7.8,87,0.00,,,0.00,WUHU216HW,2014-01-23 23:07:00,
2014-01-24 00:12:00,38.9,35.3,29.83,WNW,293,4.7,6.0,87,0.00,,,0.00,WUHU216HW,2014-01-23 23:12:00,
2014-01-24 00:17:00,38.7,35.1,29.83,WNW,293,4.7,6.0,87,0.00,,,0.00,WUHU216HW,2014-01-23 23:17:00,
2014-01-24 00:22:00,38.7,35.1,29.83,WNW,293,4.9,5.1,87,0.00,,,0.00,WUHU216HW,2014-01-23 23:22:00,
2014-01-24 00:27:00,38.7,35.1,29.84,WNW,293,4.5,5.1,87,0.00,,,0.00,WUHU216HW,2014-01-23 23:27:00,
2014-01-24 00:32:00,38.7,35.1,29.84,WNW,293,4.5,4.9,87,0.00,,,0.00,WUHU216HW,2014-01-23 23:32:00,
2014-01-24 00:37:00,38.7,35.1,29.84,WNW,293,4.0,4.9,87,0.00,,,0.00,WUHU216HW,2014-01-23 23:37:00,
2014-01-24 00:42:00,38.7,35.1,29.84,NW,315,6.0,6.0,87,0.00,,,0.00,WUHU216HW,2014-01-23 23:42:00,
2014-01-24 00:47:00,38.5,34.9,29.84,WNW,293,4.0,6.0,87,0.00,,,0.00,WUHU216HW,2014-01-23 23:47:00,
2014-01-24 00:52:00,38.5,34.9,29.84,WNW,293,3.6,4.9,87,0.00,,,0.00,WUHU216HW,2014-01-23 23:52:00,
2014-01-24 00:57:00,38.3,34.7,29.84,WNW,293,1.6,4.3,87,0.00,,,0.00,WUHU216HW,2014-01-23 23:57:00,
2014-01-24 01:02:00,38.2,34.6,29.84,WNW,293,1.8,3.6,87,0.00,,,0.00,WUHU216HW,2014-01-24 00:02:00,
2014-01-24 01:07:00,38.0,34.4,29.84,NW,315,2.9,3.4,87,0.00,,,0.00,WUHU216HW,2014-01-24 00:07:00,
2014-01-24 01:12:00,38.0,34.4,29.84,WNW,293,4.7,4.7,87,0.00,,,0.00,WUHU216HW,2014-01-24 00:12:00,
2014-01-24 01:17:00,38.2,34.9,29.84,West,270,8.9,9.8,88,0.00,,,0.00,WUHU216HW,2014-01-24 00:17:00,
2014-01-24 01:22:00,38.5,35.6,29.84,WNW,293,6.3,9.8,89,0.00,,,0.00,WUHU216HW,2014-01-24 00:22:00,
2014-01-24 01:27:00,38.7,35.7,29.84,WNW,293,4.3,8.9,89,0.00,,,0.00,WUHU216HW,2014-01-24 00:27:00,
2014-01-24 01:32:00,38.9,35.9,29.84,WNW,293,6.3,6.3,89,0.00,,,0.00,WUHU216HW,2014-01-24 00:32:00,
2014-01-24 01:37:00,38.9,35.9,29.84,WNW,293,7.6,7.8,89,0.00,,,0.00,WUHU216HW,2014-01-24 00:37:00,
2014-01-24 01:42:00,38.9,35.9,29.84,WNW,293,6.0,7.8,89,0.00,,,0.00,WUHU216HW,2014-01-24 00:42:00,
2014-01-24 01:47:00,38.7,35.7,29.84,NW,315,4.9,7.6,89,0.00,,,0.00,WUHU216HW,2014-01-24 00:47:00,
2014-01-24 01:52:00,38.7,35.5,29.84,WNW,293,6.9,7.6,88,0.00,,,0.00,WUHU216HW,2014-01-24 00:52:00,
2014-01-24 01:57:00,38.7,35.5,29.85,WNW,293,4.7,6.9,88,0.00,,,0.00,WUHU216HW,2014-01-24 00:57:00,
2014-01-24 02:02:00,38.7,35.5,29.85,WNW,293,4.5,5.8,88,0.00,,,0.00,WUHU216HW,2014-01-24 01:02:00,
2014-01-24 02:07:00,38.7,35.7,29.85,WNW,293,4.0,5.6,89,0.00,,,0.00,WUHU216HW,2014-01-24 01:07:00,
2014-01-24 02:12:00,38.5,35.6,29.85,West,270,4.5,5.8,89,0.00,,,0.00,WUHU216HW,2014-01-24 01:12:00,
2014-01-24 02:17:00,38.5,35.3,29.85,WNW,293,6.0,6.7,88,0.00,,,0.00,WUHU216HW,2014-01-24 01:17:00,
2014-01-24 02:22:00,38.5,35.3,29.85,West,270,6.3,7.6,88,0.00,,,0.00,WUHU216HW,2014-01-24 01:22:00,
2014-01-24 02:27:00,38.5,35.3,29.86,NW,315,7.4,8.3,88,0.00,,,0.00,WUHU216HW,2014-01-24 01:27:00,
2014-01-24 02:32:00,38.5,35.3,29.86,WNW,293,6.9,8.3,88,0.00,,,0.00,WUHU216HW,2014-01-24 01:32:00,
2014-01-24 02:37:00,38.3,35.1,29.86,West,270,6.5,9.2,88,0.00,,,0.00,WUHU216HW,2014-01-24 01:37:00,
2014-01-24 02:42:00,38.2,34.9,29.86,WNW,293,6.0,9.2,88,0.00,,,0.00,WUHU216HW,2014-01-24 01:42:00,
2014-01-24 02:47:00,38.2,34.9,29.86,WNW,293,5.4,6.3,88,0.00,,,0.00,WUHU216HW,2014-01-24 01:47:00,
2014-01-24 02:52:00,38.0,34.8,29.86,WNW,293,4.7,6.3,88,0.00,,,0.00,WUHU216HW,2014-01-24 01:52:00,
2014-01-24 02:57:00,38.0,35.0,29.86,WNW,293,4.7,5.4,89,0.00,,,0.00,WUHU216HW,2014-01-24 01:57:00,
2014-01-24 03:02:00,38.2,35.2,29.86,WSW,248,4.0,5.4,89,0.00,,,0.00,WUHU216HW,2014-01-24 02:02:00,
2014-01-24 03:07:00,38.2,35.2,29.86,West,270,4.7,5.8,89,0.00,,,0.00,WUHU216HW,2014-01-24 02:07:00,
2014-01-24 03:12:00,38.5,35.8,29.87,NW,315,5.4,6.7,90,0.00,,,0.00,WUHU216HW,2014-01-24 02:12:00,
2014-01-24 03:17:00,38.5,35.8,29.87,WNW,293,6.0,6.7,90,0.00,,,0.00,WUHU216HW,2014-01-24 02:17:00,
2014-01-24 03:22:00,38.9,36.2,29.87,WNW,293,7.6,7.6,90,0.00,,,0.00,WUHU216HW,2014-01-24 02:22:00,
2014-01-24 03:27:00,39.1,36.4,29.87,NW,315,5.4,7.6,90,0.00,,,0.00,WUHU216HW,2014-01-24 02:27:00,
2014-01-24 03:32:00,39.2,36.5,29.88,NW,315,4.7,7.6,90,0.00,,,0.00,WUHU216HW,2014-01-24 02:32:00,
2014-01-24 03:37:00,39.2,36.5,29.87,NW,315,4.0,6.7,90,0.00,,,0.00,WUHU216HW,2014-01-24 02:37:00,
2014-01-24 03:42:00,39.2,36.5,29.87,WNW,293,4.0,5.1,90,0.00,,,0.00,WUHU216HW,2014-01-24 02:42:00,
2014-01-24 03:47:00,39.2,36.5,29.88,WNW,293,4.0,5.6,90,0.00,,,0.00,WUHU216HW,2014-01-24 02:47:00,
2014-01-24 03:52:00,39.1,36.1,29.88,NW,315,4.0,5.6,89,0.00,,,0.00,WUHU216HW,2014-01-24 02:52:00,
2014-01-24 03:57:00,39.1,36.1,29.87,WNW,293,4.0,5.6,89,0.00,,,0.00,WUHU216HW,2014-01-24 02:57:00,
2014-01-24 04:02:00,38.9,35.9,29.88,WNW,293,4.7,4.7,89,0.00,,,0.00,WUHU216HW,2014-01-24 03:02:00,
2014-01-24 04:07:00,38.9,35.9,29.87,WNW,293,4.0,4.7,89,0.00,,,0.00,WUHU216HW,2014-01-24 03:07:00,
2014-01-24 04:12:00,38.7,35.7,29.88,WNW,293,3.4,4.0,89,0.00,,,0.00,WUHU216HW,2014-01-24 03:12:00,
2014-01-24 04:17:00,38.5,35.3,29.88,WNW,293,3.4,4.0,88,0.00,,,0.00,WUHU216HW,2014-01-24 03:17:00,
2014-01-24 04:22:00,38.3,35.1,29.88,WNW,293,2.7,3.4,88,0.00,,,0.00,WUHU216HW,2014-01-24 03:22:00,
2014-01-24 04:27:00,38.2,34.9,29.88,WNW,293,1.8,3.4,88,0.00,,,0.00,WUHU216HW,2014-01-24 03:27:00,
2014-01-24 04:32:00,38.0,34.8,29.88,WNW,293,2.0,2.5,88,0.00,,,0.00,WUHU216HW,2014-01-24 03:32:00,
2014-01-24 04:37:00,37.8,34.6,29.88,WNW,293,1.8,2.5,88,0.00,,,0.00,WUHU216HW,2014-01-24 03:37:00,
2014-01-24 04:42:00,37.8,34.6,29.88,West,270,2.2,2.5,88,0.00,,,0.00,WUHU216HW,2014-01-24 03:42:00,
2014-01-24 04:47:00,37.6,34.4,29.88,West,270,2.5,2.5,88,0.00,,,0.00,WUHU216HW,2014-01-24 03:47:00,
2014-01-24 04:52:00,37.4,34.2,29.88,West,270,2.5,3.4,88,0.00,,,0.00,WUHU216HW,2014-01-24 03:52:00,
2014-01-24 04:57:00,37.4,33.8,29.88,WNW,293,2.5,3.4,87,0.00,,,0.00,WUHU216HW,2014-01-24 03:57:00,
2014-01-24 05:02:00,37.1,33.5,29.89,WNW,293,0.4,2.5,87,0.00,,,0.00,WUHU216HW,2014-01-24 04:02:00,
2014-01-24 05:07:00,37.1,33.5,29.89,WNW,293,0.2,0.9,87,0.00,,,0.00,WUHU216HW,2014-01-24 04:07:00,
2014-01-24 05:12:00,37.1,33.5,29.89,WNW,293,0.4,0.4,87,0.00,,,0.00,WUHU216HW,2014-01-24 04:12:00,
2014-01-24 05:17:00,37.1,33.5,29.89,WNW,293,0.2,0.9,87,0.00,,,0.00,WUHU216HW,2014-01-24 04:17:00,
2014-01-24 05:22:00,37.1,33.5,29.89,WNW,293,1.3,1.3,87,0.00,,,0.00,WUHU216HW,2014-01-24 04:22:00,
2014-01-24 05:27:00,37.1,33.5,29.89,NW,315,1.1,1.3,87,0.00,,,0.00,WUHU216HW,2014-01-24 04:27:00,
2014-01-24 05:32:00,37.1,33.9,29.89,NW,315,0.4,1.1,88,0.00,,,0.00,WUHU216HW,2014-01-24 04:32:00,
2014-01-24 05:37:00,37.1,33.9,29.89,NW,315,0.0,0.7,88,0.00,,,0.00,WUHU216HW,2014-01-24 04:37:00,
2014-01-24 05:42:00,37.1,33.9,29.89,West,270,0.4,0.7,88,0.00,,,0.00,WUHU216HW,2014-01-24 04:42:00,
2014-01-24 05:47:00,37.1,33.9,29.89,West,270,0.4,0.7,88,0.00,,,0.00,WUHU216HW,2014-01-24 04:47:00,
2014-01-24 05:52:00,37.1,33.9,29.89,West,270,0.9,1.1,88,0.00,,,0.00,WUHU216HW,2014-01-24 04:52:00,
2014-01-24 05:57:00,37.1,33.9,29.89,WSW,248,1.1,1.1,88,0.00,,,0.00,WUHU216HW,2014-01-24 04:57:00,
2014-01-24 06:01:00,37.1,33.9,29.89,WSW,248,0.7,1.1,88,0.00,,,0.00,WUHU216HW,2014-01-24 05:01:00,
2014-01-24 06:06:00,37.1,33.9,29.89,WSW,248,0.9,1.1,88,0.00,,,0.00,WUHU216HW,2014-01-24 05:06:00,
2014-01-24 06:11:00,37.1,34.1,29.90,West,270,1.1,1.6,89,0.00,,,0.00,WUHU216HW,2014-01-24 05:11:00,
2014-01-24 06:16:00,37.1,34.1,29.89,West,270,1.1,1.6,89,0.00,,,0.00,WUHU216HW,2014-01-24 05:16:00,
2014-01-24 06:21:00,37.3,34.3,29.89,WNW,293,1.1,1.3,89,0.00,,,0.00,WUHU216HW,2014-01-24 05:21:00,
2014-01-24 06:26:00,37.3,34.3,29.90,WNW,293,1.6,1.6,89,0.00,,,0.00,WUHU216HW,2014-01-24 05:26:00,
2014-01-24 06:31:00,37.3,34.3,29.90,WNW,293,0.9,1.6,89,0.00,,,0.00,WUHU216HW,2014-01-24 05:31:00,
2014-01-24 06:36:00,37.3,34.3,29.90,WNW,293,2.5,2.5,89,0.00,,,0.00,WUHU216HW,2014-01-24 05:36:00,
2014-01-24 06:41:00,37.3,34.3,29.90,West,270,1.3,2.5,89,0.00,,,0.00,WUHU216HW,2014-01-24 05:41:00,
2014-01-24 06:46:00,37.3,34.3,29.91,WSW,248,1.1,2.5,89,0.00,,,0.00,WUHU216HW,2014-01-24 05:46:00,
2014-01-24 06:51:00,37.3,34.3,29.91,WSW,248,1.1,2.2,89,0.00,,,0.00,WUHU216HW,2014-01-24 05:51:00,
2014-01-24 06:56:00,37.3,34.3,29.91,WNW,293,1.3,1.8,89,0.00,,,0.00,WUHU216HW,2014-01-24 05:56:00,
2014-01-24 07:01:00,37.1,34.1,29.91,West,270,2.5,2.5,89,0.00,,,0.00,WUHU216HW,2014-01-24 06:01:00,
2014-01-24 07:06:00,37.1,34.1,29.91,West,270,2.2,2.7,89,0.00,,,0.00,WUHU216HW,2014-01-24 06:06:00,
2014-01-24 07:11:00,37.1,34.1,29.91,West,270,2.2,2.7,89,0.00,,,0.00,WUHU216HW,2014-01-24 06:11:00,
2014-01-24 07:34:00,36.9,33.9,29.91,WNW,293,0.0,0.0,89,0.00,,,0.00,WUHU216HW,2014-01-24 06:34:00,
2014-01-24 07:38:00,36.9,33.9,29.92,WNW,293,0.0,0.0,89,0.00,,,0.00,WUHU216HW,2014-01-24 06:38:00,
2014-01-24 07:43:00,36.7,33.8,29.92,WNW,293,0.0,0.0,89,0.00,,,0.00,WUHU216HW,2014-01-24 06:43:00,
2014-01-24 07:49:00,36.7,33.8,29.92,WNW,293,0.0,0.0,89,0.00,,,0.00,WUHU216HW,2014-01-24 06:49:00,
2014-01-24 07:54:00,36.7,33.8,29.92,NW,315,0.2,0.2,89,0.00,,,0.00,WUHU216HW,2014-01-24 06:54:00,
2014-01-24 07:59:00,36.7,33.8,29.92,WNW,293,0.2,0.7,89,0.00,,,0.00,WUHU216HW,2014-01-24 06:59:00,
2014-01-24 08:04:00,36.7,33.8,29.92,NW,315,0.9,0.9,89,0.00,,,0.00,WUHU216HW,2014-01-24 07:04:00,
2014-01-24 08:09:00,36.7,33.8,29.92,NNW,338,1.1,1.1,89,0.00,,,0.00,WUHU216HW,2014-01-24 07:09:00,
2014-01-24 08:14:00,36.7,33.8,29.93,NW,315,1.1,1.1,89,0.00,,,0.00,WUHU216HW,2014-01-24 07:14:00,
2014-01-24 08:19:00,36.9,33.9,29.93,WNW,293,2.5,2.5,89,0.00,,,0.00,WUHU216HW,2014-01-24 07:19:00,
2014-01-24 08:24:00,37.1,34.4,29.93,NNW,338,0.4,2.5,90,0.00,,,0.00,WUHU216HW,2014-01-24 07:24:00,
2014-01-24 08:29:00,37.3,34.6,29.93,NE,45,1.1,1.6,90,0.00,,,0.00,WUHU216HW,2014-01-24 07:29:00,
2014-01-24 08:34:00,37.3,34.6,29.93,NE,45,1.1,1.1,90,0.00,,,0.00,WUHU216HW,2014-01-24 07:34:00,
2014-01-24 08:39:00,37.3,34.6,29.93,NE,45,1.1,1.1,90,0.00,,,0.00,WUHU216HW,2014-01-24 07:39:00,
2014-01-24 08:59:00,37.8,35.1,29.94,ESE,113,1.3,1.3,90,0.00,,,0.00,WUHU216HW,2014-01-24 07:59:00,
2014-01-24 09:04:00,38.2,35.5,29.94,ENE,68,0.2,1.3,90,0.00,,,0.00,WUHU216HW,2014-01-24 08:04:00,
2014-01-24 09:09:00,38.2,35.7,29.94,ENE,68,0.0,1.3,91,0.00,,,0.00,WUHU216HW,2014-01-24 08:09:00,
2014-01-24 09:14:00,38.3,35.9,29.95,ENE,68,0.0,0.4,91,0.01,,,0.01,WUHU216HW,2014-01-24 08:14:00,
2014-01-24 09:19:00,38.5,36.1,29.95,ENE,68,0.2,0.4,91,0.01,,,0.01,WUHU216HW,2014-01-24 08:19:00,
2014-01-24 09:24:00,38.5,36.1,29.95,SE,135,1.6,1.6,91,0.01,,,0.01,WUHU216HW,2014-01-24 08:24:00,
2014-01-24 09:29:00,38.5,36.1,29.95,SE,135,0.4,1.6,91,0.01,,,0.01,WUHU216HW,2014-01-24 08:29:00,
2014-01-24 09:34:00,38.5,36.1,29.95,ESE,113,0.7,1.6,91,0.01,,,0.01,WUHU216HW,2014-01-24 08:34:00,
2014-01-24 09:39:00,38.5,36.1,29.95,ESE,113,0.4,1.6,91,0.01,,,0.01,WUHU216HW,2014-01-24 08:39:00,
2014-01-24 09:44:00,38.7,36.3,29.95,SSE,158,1.1,1.1,91,0.01,,,0.01,WUHU216HW,2014-01-24 08:44:00,
2014-01-24 09:49:00,38.7,36.3,29.95,South,180,1.3,1.6,91,0.01,,,0.01,WUHU216HW,2014-01-24 08:49:00,
2014-01-24 09:54:00,38.7,36.3,29.95,SSE,158,1.1,1.6,91,0.01,,,0.01,WUHU216HW,2014-01-24 08:54:00,
2014-01-24 09:59:00,38.7,36.3,29.95,South,180,1.1,1.3,91,0.01,,,0.01,WUHU216HW,2014-01-24 08:59:00,
2014-01-24 10:04:00,38.7,36.3,29.95,SSE,158,1.3,1.8,91,0.01,,,0.01,WUHU216HW,2014-01-24 09:04:00,
2014-01-24 10:09:00,38.9,36.5,29.96,WSW,248,1.1,1.8,91,0.02,,,0.01,WUHU216HW,2014-01-24 09:09:00,
2014-01-24 10:14:00,39.1,36.9,29.96,WSW,248,0.7,1.3,92,0.01,,,0.02,WUHU216HW,2014-01-24 09:14:00,
2014-01-24 10:19:00,39.2,37.1,29.96,SSW,203,0.7,1.1,92,0.01,,,0.02,WUHU216HW,2014-01-24 09:19:00,
2014-01-24 10:24:00,39.2,37.1,29.96,SW,225,0.0,0.7,92,0.01,,,0.02,WUHU216HW,2014-01-24 09:24:00,
2014-01-24 10:29:00,39.2,37.1,29.96,ESE,113,0.4,0.4,92,0.01,,,0.02,WUHU216HW,2014-01-24 09:29:00,
2014-01-24 10:34:00,39.4,37.3,29.96,ESE,113,1.3,1.3,92,0.01,,,0.02,WUHU216HW,2014-01-24 09:34:00,
2014-01-24 10:39:00,39.4,37.5,29.96,ESE,113,1.3,1.3,93,0.01,,,0.02,WUHU216HW,2014-01-24 09:39:00,
2014-01-24 10:44:00,39.6,37.7,29.96,East,90,0.0,1.3,93,0.01,,,0.02,WUHU216HW,2014-01-24 09:44:00,
2014-01-24 10:49:00,39.8,37.9,29.96,SE,135,0.0,1.1,93,0.01,,,0.02,WUHU216HW,2014-01-24 09:49:00,
2014-01-24 10:54:00,39.8,37.9,29.96,SE,135,0.9,0.9,93,0.01,,,0.02,WUHU216HW,2014-01-24 09:54:00,
2014-01-24 10:59:00,40.0,38.1,29.96,SE,135,0.0,0.9,93,0.01,,,0.02,WUHU216HW,2014-01-24 09:59:00,
2014-01-24 11:04:00,40.0,38.1,29.97,SSE,158,0.0,0.9,93,0.01,,,0.02,WUHU216HW,2014-01-24 10:04:00,
2014-01-24 11:09:00,40.0,38.1,29.97,SE,135,0.4,0.9,93,0.00,,,0.02,WUHU216HW,2014-01-24 10:09:00,
2014-01-24 11:14:00,40.1,38.3,29.97,ESE,113,0.0,0.9,93,0.00,,,0.02,WUHU216HW,2014-01-24 10:14:00,
2014-01-24 11:19:00,40.3,38.4,29.97,ESE,113,0.2,0.4,93,0.00,,,0.02,WUHU216HW,2014-01-24 10:19:00,
2014-01-24 11:24:00,40.3,38.4,29.97,SE,135,0.4,0.4,93,0.00,,,0.02,WUHU216HW,2014-01-24 10:24:00,
2014-01-24 11:29:00,40.5,38.6,29.97,ESE,113,0.9,1.1,93,0.00,,,0.02,WUHU216HW,2014-01-24 10:29:00,
2014-01-24 11:34:00,40.5,38.6,29.96,SE,135,1.1,1.1,93,0.00,,,0.02,WUHU216HW,2014-01-24 10:34:00,
2014-01-24 11:39:00,40.7,38.8,29.97,SSE,158,1.1,1.1,93,0.00,,,0.02,WUHU216HW,2014-01-24 10:39:00,
2014-01-24 11:44:00,40.7,38.8,29.97,SSE,158,0.9,1.1,93,0.00,,,0.02,WUHU216HW,2014-01-24 10:44:00,
2014-01-24 11:49:00,40.9,39.0,29.97,SE,135,1.6,1.6,93,0.00,,,0.02,WUHU216HW,2014-01-24 10:49:00,
2014-01-24 11:54:00,41.0,39.2,29.97,SE,135,0.2,1.6,93,0.00,,,0.02,WUHU216HW,2014-01-24 10:54:00,
2014-01-24 11:59:00,41.2,39.3,29.97,SE,135,0.7,1.6,93,0.00,,,0.02,WUHU216HW,2014-01-24 10:59:00,
2014-01-24 12:04:00,41.4,39.5,29.97,SE,135,1.1,1.6,93,0.00,,,0.02,WUHU216HW,2014-01-24 11:04:00,
2014-01-24 12:09:00,41.4,39.5,29.97,SW,225,4.0,4.0,93,0.00,,,0.02,WUHU216HW,2014-01-24 11:09:00,
2014-01-24 12:14:00,41.8,39.6,29.97,SW,225,3.4,4.0,92,0.00,,,0.02,WUHU216HW,2014-01-24 11:14:00,
2014-01-24 12:19:00,41.9,39.5,29.97,SW,225,2.5,3.4,91,0.00,,,0.02,WUHU216HW,2014-01-24 11:19:00,
2014-01-24 12:24:00,42.1,39.7,29.97,SW,225,3.1,3.4,91,0.00,,,0.02,WUHU216HW,2014-01-24 11:24:00,
2014-01-24 12:29:00,42.1,39.4,29.97,SW,225,2.2,3.4,90,0.00,,,0.02,WUHU216HW,2014-01-24 11:29:00,
2014-01-24 12:34:00,42.1,39.2,29.97,WSW,248,3.4,3.4,89,0.00,,,0.02,WUHU216HW,2014-01-24 11:34:00,
2014-01-24 12:39:00,42.1,39.4,29.97,WSW,248,2.9,3.4,90,0.00,,,0.02,WUHU216HW,2014-01-24 11:39:00,
2014-01-24 12:44:00,42.1,39.4,29.97,West,270,2.5,3.4,90,0.00,,,0.02,WUHU216HW,2014-01-24 11:44:00,
2014-01-24 12:49:00,42.1,39.4,29.97,WSW,248,2.5,3.4,90,0.00,,,0.02,WUHU216HW,2014-01-24 11:49:00,
2014-01-24 12:54:00,42.1,39.2,29.97,WSW,248,2.2,3.4,89,0.00,,,0.02,WUHU216HW,2014-01-24 11:54:00,
2014-01-24 12:59:00,42.3,39.0,29.97,WSW,248,4.7,4.7,88,0.00,,,0.02,WUHU216HW,2014-01-24 11:59:00,
2014-01-24 13:04:00,42.3,38.7,29.97,WSW,248,4.5,4.7,87,0.00,,,0.02,WUHU216HW,2014-01-24 12:04:00,
2014-01-24 13:09:00,42.5,39.2,29.97,WSW,248,3.8,4.5,88,0.00,,,0.02,WUHU216HW,2014-01-24 12:09:00,
2014-01-24 13:14:00,42.5,38.9,29.97,SW,225,1.8,3.8,87,0.00,,,0.02,WUHU216HW,2014-01-24 12:14:00,
2014-01-24 13:19:00,42.5,38.9,29.97,North,0,0.0,3.4,87,0.00,,,0.02,WUHU216HW,2014-01-24 12:19:00,
2014-01-24 13:24:00,42.7,38.7,29.97,North,0,0.0,1.8,86,0.00,,,0.02,WUHU216HW,2014-01-24 12:24:00,
2014-01-24 13:29:00,42.8,38.9,29.97,North,0,0.0,0.0,86,0.00,,,0.02,WUHU216HW,2014-01-24 12:29:00,
2014-01-24 13:34:00,42.8,38.9,29.97,North,0,0.0,0.0,86,0.00,,,0.02,WUHU216HW,2014-01-24 12:34:00,
2014-01-24 13:55:00,43.4,40.1,29.97,North,0,0.0,0.0,88,0.00,,,0.02,WUHU216HW,2014-01-24 12:55:00,
2014-01-24 14:00:00,43.6,40.0,29.97,WNW,293,4.0,4.9,87,0.00,,,0.02,WUHU216HW,2014-01-24 13:00:00,
2014-01-24 14:05:00,43.7,40.2,29.97,West,270,3.6,4.9,87,0.00,,,0.02,WUHU216HW,2014-01-24 13:05:00,
2014-01-24 14:10:00,43.7,40.2,29.97,North,0,0.0,4.0,87,0.00,,,0.02,WUHU216HW,2014-01-24 13:10:00,
2014-01-24 14:15:00,43.9,40.3,29.97,North,0,0.0,3.6,87,0.00,,,0.02,WUHU216HW,2014-01-24 13:15:00,
2014-01-24 14:20:00,44.1,40.5,29.97,North,0,0.0,0.0,87,0.00,,,0.02,WUHU216HW,2014-01-24 13:20:00,
2014-01-24 14:25:00,44.1,40.5,29.97,North,0,0.0,0.0,87,0.00,,,0.02,WUHU216HW,2014-01-24 13:25:00,
2014-01-24 14:30:00,44.3,40.3,29.96,North,0,0.0,0.0,86,0.00,,,0.02,WUHU216HW,2014-01-24 13:30:00,
2014-01-24 14:35:00,44.1,40.1,29.97,North,0,0.0,0.0,86,0.00,,,0.02,WUHU216HW,2014-01-24 13:35:00,
2014-01-24 14:40:00,44.3,40.3,29.97,North,0,0.0,0.0,86,0.00,,,0.02,WUHU216HW,2014-01-24 13:40:00,
2014-01-24 14:45:00,44.3,40.3,29.97,North,0,0.0,0.0,86,0.00,,,0.02,WUHU216HW,2014-01-24 13:45:00,
2014-01-24 14:50:00,44.3,40.3,29.96,North,0,0.0,0.0,86,0.00,,,0.02,WUHU216HW,2014-01-24 13:50:00,
2014-01-24 14:55:00,44.3,40.1,29.96,North,0,0.0,0.0,85,0.00,,,0.02,WUHU216HW,2014-01-24 13:55:00,
2014-01-24 15:00:00,44.6,40.4,29.97,North,0,0.0,0.0,85,0.00,,,0.02,WUHU216HW,2014-01-24 14:00:00,
2014-01-24 15:05:00,44.8,40.6,29.97,North,0,0.0,0.0,85,0.00,,,0.02,WUHU216HW,2014-01-24 14:05:00,
2014-01-24 15:10:00,44.8,40.3,29.97,North,0,0.0,0.0,84,0.00,,,0.02,WUHU216HW,2014-01-24 14:10:00,
2014-01-24 15:15:00,44.8,39.7,29.97,North,0,0.0,0.0,82,0.00,,,0.02,WUHU216HW,2014-01-24 14:15:00,
2014-01-24 15:20:00,44.6,39.5,29.97,North,0,0.0,0.0,82,0.00,,,0.02,WUHU216HW,2014-01-24 14:20:00,
2014-01-24 15:25:00,44.6,39.2,29.98,North,0,0.0,0.0,81,0.00,,,0.02,WUHU216HW,2014-01-24 14:25:00,
2014-01-24 15:30:00,44.8,39.7,29.98,North,0,0.0,0.0,82,0.00,,,0.02,WUHU216HW,2014-01-24 14:30:00,
2014-01-24 15:35:00,45.0,39.5,29.98,North,0,0.0,0.0,81,0.00,,,0.02,WUHU216HW,2014-01-24 14:35:00,
2014-01-24 15:40:00,45.0,39.2,29.98,North,0,0.0,0.0,80,0.00,,,0.02,WUHU216HW,2014-01-24 14:40:00,
2014-01-24 15:45:00,44.8,38.7,29.99,North,0,0.0,0.0,79,0.00,,,0.02,WUHU216HW,2014-01-24 14:45:00,
2014-01-24 15:50:00,44.6,38.9,29.99,North,0,0.0,0.0,80,0.00,,,0.02,WUHU216HW,2014-01-24 14:50:00,
2014-01-24 15:55:00,44.3,38.5,29.99,North,0,0.0,0.0,80,0.00,,,0.02,WUHU216HW,2014-01-24 14:55:00,
2014-01-24 16:01:00,44.3,38.5,29.99,North,0,0.0,0.0,80,0.00,,,0.02,WUHU216HW,2014-01-24 15:01:00,
2014-01-24 16:06:00,43.9,38.4,29.99,North,0,0.0,0.0,81,0.00,,,0.02,WUHU216HW,2014-01-24 15:06:00,
2014-01-24 16:11:00,43.9,38.4,29.99,North,0,0.0,0.0,81,0.00,,,0.02,WUHU216HW,2014-01-24 15:11:00,
2014-01-24 16:16:00,43.7,38.3,29.99,North,0,0.0,0.0,81,0.00,,,0.02,WUHU216HW,2014-01-24 15:16:00,
2014-01-24 16:21:00,43.6,38.1,29.99,North,0,0.0,0.0,81,0.00,,,0.02,WUHU216HW,2014-01-24 15:21:00,
2014-01-24 16:26:00,43.4,38.3,30.00,North,0,0.0,0.0,82,0.00,,,0.02,WUHU216HW,2014-01-24 15:26:00,
2014-01-24 16:31:00,43.4,38.5,30.00,North,0,0.0,0.0,83,0.00,,,0.02,WUHU216HW,2014-01-24 15:31:00,
2014-01-24 16:36:00,43.2,38.3,30.00,North,0,0.0,0.0,83,0.00,,,0.02,WUHU216HW,2014-01-24 15:36:00,
2014-01-24 16:41:00,43.0,38.2,29.99,North,0,0.0,0.0,83,0.00,,,0.02,WUHU216HW,2014-01-24 15:41:00,
2014-01-24 16:46:00,43.0,38.2,29.99,North,0,0.0,0.0,83,0.00,,,0.02,WUHU216HW,2014-01-24 15:46:00,
2014-01-24 16:51:00,43.0,38.5,30.00,North,0,0.0,0.0,84,0.00,,,0.02,WUHU216HW,2014-01-24 15:51:00,
2014-01-24 16:56:00,42.8,38.4,30.00,North,0,0.0,0.0,84,0.00,,,0.02,WUHU216HW,2014-01-24 15:56:00,
2014-01-24 17:01:00,42.8,38.4,30.00,North,0,0.0,0.0,84,0.00,,,0.02,WUHU216HW,2014-01-24 16:01:00,
2014-01-24 17:06:00,42.8,38.4,30.00,North,0,0.0,0.0,84,0.00,,,0.02,WUHU216HW,2014-01-24 16:06:00,
2014-01-24 17:11:00,42.7,38.2,30.00,North,0,0.0,0.0,84,0.00,,,0.02,WUHU216HW,2014-01-24 16:11:00,
2014-01-24 17:16:00,42.5,38.0,30.00,North,0,0.0,0.0,84,0.00,,,0.02,WUHU216HW,2014-01-24 16:16:00,
2014-01-24 17:21:00,42.5,38.0,30.00,North,0,0.0,0.0,84,0.00,,,0.02,WUHU216HW,2014-01-24 16:21:00,
2014-01-24 17:26:00,42.1,37.6,30.00,North,0,0.0,0.0,84,0.00,,,0.02,WUHU216HW,2014-01-24 16:26:00,
2014-01-24 17:31:00,42.1,37.6,30.00,North,0,0.0,0.0,84,0.00,,,0.02,WUHU216HW,2014-01-24 16:31:00,
2014-01-24 17:36:00,41.9,37.1,30.00,North,0,0.0,0.0,83,0.00,,,0.02,WUHU216HW,2014-01-24 16:36:00,
2014-01-24 17:41:00,41.8,37.3,30.00,North,0,0.0,0.0,84,0.00,,,0.02,WUHU216HW,2014-01-24 16:41:00,
2014-01-24 17:46:00,41.8,37.3,30.00,North,0,0.0,0.0,84,0.00,,,0.02,WUHU216HW,2014-01-24 16:46:00,
2014-01-24 17:51:00,41.6,36.7,30.00,North,0,0.0,0.0,83,0.00,,,0.02,WUHU216HW,2014-01-24 16:51:00,
2014-01-24 17:56:00,41.4,36.5,30.01,North,0,0.0,0.0,83,0.00,,,0.02,WUHU216HW,2014-01-24 16:56:00,
2014-01-24 18:01:00,41.4,36.5,30.01,North,0,0.0,0.0,83,0.00,,,0.02,WUHU216HW,2014-01-24 17:01:00,
2014-01-24 18:06:00,41.4,36.9,30.01,North,0,0.0,0.0,84,0.00,,,0.02,WUHU216HW,2014-01-24 17:06:00,
2014-01-24 18:11:00,41.4,36.9,30.01,North,0,0.0,0.0,84,0.00,,,0.02,WUHU216HW,2014-01-24 17:11:00,
2014-01-24 18:16:00,41.0,36.6,30.01,North,0,0.0,0.0,84,0.00,,,0.02,WUHU216HW,2014-01-24 17:16:00,
2014-01-24 18:21:00,40.7,36.2,30.02,North,0,0.0,0.0,84,0.00,,,0.02,WUHU216HW,2014-01-24 17:21:00,
2014-01-24 18:26:00,40.5,36.0,30.02,North,0,0.0,0.0,84,0.00,,,0.02,WUHU216HW,2014-01-24 17:26:00,
2014-01-24 18:31:00,40.3,35.8,30.02,North,0,0.0,0.0,84,0.00,,,0.02,WUHU216HW,2014-01-24 17:31:00,
2014-01-24 18:36:00,40.1,35.6,30.02,North,0,0.0,0.0,84,0.00,,,0.02,WUHU216HW,2014-01-24 17:36:00,
2014-01-24 18:41:00,40.0,35.8,30.02,North,0,0.0,0.0,85,0.00,,,0.02,WUHU216HW,2014-01-24 17:41:00,
2014-01-24 18:46:00,40.0,35.8,30.02,North,0,0.0,0.0,85,0.00,,,0.02,WUHU216HW,2014-01-24 17:46:00,
2014-01-24 18:51:00,40.0,35.8,30.02,North,0,0.0,0.0,85,0.00,,,0.02,WUHU216HW,2014-01-24 17:51:00,
2014-01-24 18:56:00,39.8,35.7,30.02,North,0,0.0,0.0,85,0.00,,,0.02,WUHU216HW,2014-01-24 17:56:00,
2014-01-24 19:01:00,39.8,35.7,30.02,North,0,0.0,0.0,85,0.00,,,0.02,WUHU216HW,2014-01-24 18:01:00,
2014-01-24 19:06:00,39.8,35.7,30.02,North,0,0.0,0.0,85,0.00,,,0.02,WUHU216HW,2014-01-24 18:06:00,
2014-01-24 19:11:00,39.6,35.5,30.02,North,0,0.0,0.0,85,0.00,,,0.02,WUHU216HW,2014-01-24 18:11:00,
2014-01-24 19:16:00,39.8,35.9,30.02,North,0,0.0,0.0,86,0.00,,,0.02,WUHU216HW,2014-01-24 18:16:00,
2014-01-24 19:21:00,40.0,36.4,30.02,North,0,0.0,0.0,87,0.00,,,0.02,WUHU216HW,2014-01-24 18:21:00,
2014-01-24 19:26:00,40.3,36.7,30.02,North,0,0.0,0.0,87,0.00,,,0.02,WUHU216HW,2014-01-24 18:26:00,
2014-01-24 19:31:00,40.5,37.2,30.02,North,0,0.0,0.0,88,0.00,,,0.02,WUHU216HW,2014-01-24 18:31:00,
2014-01-24 19:36:00,40.0,36.4,30.02,North,0,0.0,0.0,87,0.00,,,0.02,WUHU216HW,2014-01-24 18:36:00,
2014-01-24 19:41:00,39.4,36.2,30.02,North,0,0.0,0.0,88,0.00,,,0.02,WUHU216HW,2014-01-24 18:41:00,
2014-01-24 19:46:00,39.2,36.0,30.02,North,0,0.0,0.0,88,0.00,,,0.02,WUHU216HW,2014-01-24 18:46:00,
2014-01-24 19:51:00,39.2,36.0,30.02,North,0,0.0,0.0,88,0.00,,,0.02,WUHU216HW,2014-01-24 18:51:00,
2014-01-24 19:57:00,39.2,36.0,30.02,North,0,0.0,0.0,88,0.00,,,0.02,WUHU216HW,2014-01-24 18:57:00,
2014-01-24 20:02:00,39.8,36.8,30.02,North,0,0.0,0.0,89,0.00,,,0.02,WUHU216HW,2014-01-24 19:02:00,
2014-01-24 20:07:00,40.5,37.8,30.02,North,0,0.0,0.0,90,0.00,,,0.02,WUHU216HW,2014-01-24 19:07:00,
2014-01-24 20:12:00,40.9,38.2,30.02,North,0,0.0,0.0,90,0.00,,,0.02,WUHU216HW,2014-01-24 19:12:00,
2014-01-24 20:17:00,40.9,38.2,30.02,North,0,0.0,0.0,90,0.00,,,0.02,WUHU216HW,2014-01-24 19:17:00,
2014-01-24 20:22:00,41.0,38.3,30.03,North,0,0.0,0.0,90,0.00,,,0.02,WUHU216HW,2014-01-24 19:22:00,
2014-01-24 20:27:00,41.2,38.5,30.02,North,0,0.0,0.0,90,0.00,,,0.02,WUHU216HW,2014-01-24 19:27:00,
2014-01-24 20:32:00,41.2,38.5,30.02,North,0,0.0,0.0,90,0.00,,,0.02,WUHU216HW,2014-01-24 19:32:00,
2014-01-24 20:37:00,40.7,38.0,30.03,North,0,0.0,0.0,90,0.00,,,0.02,WUHU216HW,2014-01-24 19:37:00,
2014-01-24 20:42:00,40.7,38.0,30.02,North,0,0.0,0.0,90,0.00,,,0.02,WUHU216HW,2014-01-24 19:42:00,
2014-01-24 20:47:00,40.0,37.3,30.02,North,0,0.0,0.0,90,0.00,,,0.02,WUHU216HW,2014-01-24 19:47:00,
2014-01-24 20:52:00,39.6,36.9,30.02,North,0,0.0,0.0,90,0.00,,,0.02,WUHU216HW,2014-01-24 19:52:00,
2014-01-24 20:57:00,39.4,36.7,30.02,North,0,0.0,0.0,90,0.00,,,0.02,WUHU216HW,2014-01-24 19:57:00,
2014-01-24 21:02:00,39.2,36.5,30.02,North,0,0.0,0.0,90,0.00,,,0.02,WUHU216HW,2014-01-24 20:02:00,
2014-01-24 21:07:00,38.9,36.2,30.02,North,0,0.0,0.0,90,0.00,,,0.02,WUHU216HW,2014-01-24 20:07:00,
2014-01-24 21:12:00,38.7,36.0,30.02,North,0,0.0,0.0,90,0.00,,,0.02,WUHU216HW,2014-01-24 20:12:00,
2014-01-24 21:17:00,38.5,35.8,30.03,North,0,0.0,0.0,90,0.00,,,0.02,WUHU216HW,2014-01-24 20:17:00,
2014-01-24 21:22:00,38.5,35.6,30.03,North,0,0.0,0.0,89,0.00,,,0.02,WUHU216HW,2014-01-24 20:22:00,
2014-01-24 21:27:00,38.3,35.4,30.03,North,0,0.0,0.0,89,0.00,,,0.02,WUHU216HW,2014-01-24 20:27:00,
2014-01-24 21:32:00,38.2,35.2,30.03,North,0,0.0,0.0,89,0.00,,,0.02,WUHU216HW,2014-01-24 20:32:00,
2014-01-24 21:37:00,38.2,35.2,30.03,North,0,0.0,0.0,89,0.00,,,0.02,WUHU216HW,2014-01-24 20:37:00,
2014-01-24 21:42:00,38.0,35.0,30.03,North,0,0.0,0.0,89,0.00,,,0.02,WUHU216HW,2014-01-24 20:42:00,
2014-01-24 21:47:00,38.0,35.0,30.03,North,0,0.0,0.0,89,0.00,,,0.02,WUHU216HW,2014-01-24 20:47:00,
2014-01-24 21:52:00,38.0,34.8,30.03,North,0,0.0,0.0,88,0.00,,,0.02,WUHU216HW,2014-01-24 20:52:00,
2014-01-24 21:57:00,38.0,34.8,30.03,North,0,0.0,0.0,88,0.00,,,0.02,WUHU216HW,2014-01-24 20:57:00,
2014-01-24 22:02:00,37.8,34.2,30.03,North,0,0.0,0.0,87,0.00,,,0.02,WUHU216HW,2014-01-24 21:02:00,
2014-01-24 22:07:00,37.6,34.0,30.04,North,0,0.0,0.0,87,0.00,,,0.02,WUHU216HW,2014-01-24 21:07:00,
2014-01-24 22:12:00,37.4,33.8,30.04,North,0,0.0,0.0,87,0.00,,,0.02,WUHU216HW,2014-01-24 21:12:00,
2014-01-24 22:17:00,37.3,33.7,30.03,North,0,0.0,0.0,87,0.00,,,0.02,WUHU216HW,2014-01-24 21:17:00,
2014-01-24 22:22:00,37.3,33.7,30.04,North,0,0.0,0.0,87,0.00,,,0.02,WUHU216HW,2014-01-24 21:22:00,
2014-01-24 22:27:00,37.3,33.7,30.04,North,0,0.0,0.0,87,0.00,,,0.02,WUHU216HW,2014-01-24 21:27:00,
2014-01-24 22:32:00,37.1,33.5,30.04,North,0,0.0,0.0,87,0.00,,,0.02,WUHU216HW,2014-01-24 21:32:00,
2014-01-24 22:37:00,37.1,33.5,30.04,North,0,0.0,0.0,87,0.00,,,0.02,WUHU216HW,2014-01-24 21:37:00,
2014-01-24 22:42:00,37.1,33.5,30.04,North,0,0.0,0.0,87,0.00,,,0.02,WUHU216HW,2014-01-24 21:42:00,
2014-01-24 22:47:00,37.1,33.5,30.04,North,0,0.0,0.0,87,0.00,,,0.02,WUHU216HW,2014-01-24 21:47:00,
2014-01-24 22:52:00,36.9,33.3,30.04,North,0,0.0,0.0,87,0.00,,,0.02,WUHU216HW,2014-01-24 21:52:00,
2014-01-24 22:57:00,36.9,33.3,30.04,North,0,0.0,0.0,87,0.00,,,0.02,WUHU216HW,2014-01-24 21:57:00,
2014-01-24 23:02:00,36.9,33.7,30.04,North,0,0.0,0.0,88,0.00,,,0.02,WUHU216HW,2014-01-24 22:02:00,
2014-01-24 23:07:00,37.1,33.9,30.04,North,0,0.0,0.0,88,0.00,,,0.02,WUHU216HW,2014-01-24 22:07:00,
2014-01-24 23:12:00,37.1,33.5,30.04,North,0,0.0,0.0,87,0.00,,,0.02,WUHU216HW,2014-01-24 22:12:00,
2014-01-24 23:17:00,37.1,33.5,30.04,North,0,0.0,0.0,87,0.00,,,0.02,WUHU216HW,2014-01-24 22:17:00,
2014-01-24 23:22:00,37.1,33.5,30.04,North,0,0.0,0.0,87,0.00,,,0.02,WUHU216HW,2014-01-24 22:22:00,
2014-01-24 23:27:00,36.9,33.3,30.04,North,0,0.0,0.0,87,0.00,,,0.02,WUHU216HW,2014-01-24 22:27:00,
2014-01-24 23:32:00,36.9,33.3,30.04,North,0,0.0,0.0,87,0.00,,,0.02,WUHU216HW,2014-01-24 22:32:00,
2014-01-24 23:37:00,36.7,33.1,30.04,North,0,0.0,0.0,87,0.00,,,0.02,WUHU216HW,2014-01-24 22:37:00,
2014-01-24 23:42:00,36.7,33.1,30.04,North,0,0.0,0.0,87,0.00,,,0.02,WUHU216HW,2014-01-24 22:42:00,
2014-01-24 23:47:00,36.5,32.9,30.03,North,0,0.0,0.0,87,0.00,,,0.02,WUHU216HW,2014-01-24 22:47:00,
2014-01-24 23:52:00,36.7,33.1,30.03,North,0,0.0,0.0,87,0.00,,,0.02,WUHU216HW,2014-01-24 22:52:00,
2014-01-24 23:57:00,36.5,32.9,30.03,North,0,0.0,0.0,87,0.00,,,0.02,WUHU216HW,2014-01-24 22:57:00,